Location: Unspecified
(43.4680°N, 87.1740°E)
Time: 11:18:23
(UTC+00:00)

CZ-4C R/B - Pass Details

Date: 17 April 2021
Orbit: 612 x 1390 km, 63.4° (Epoch: 14 May)

Event Time Altitude Azimuth Distance (km) Brightness Sun altitude
Rises 19:55:25 0° 325° (NW) 3,746 5.9 -30.8°
Reaches altitude 10° 19:58:05 10° 334° (NNW) 2,908 5.3 -30.5°
Maximum altitude 20:04:40 39° 42° (NE) 1,728 4.2 -29.9°
Drops below altitude 10° 20:12:15 10° 109° (ESE) 3,359 5.4 -29.1°
Sets 20:15:31 0° 117° (ESE) 4,387 6.0 -28.8°
